FW2402 Weather Reports


time (UTC)temp
C
wind
direction
speed
KPH
gust
KPH
rain 1hr
cm
rain 24hr
cm
rain mn
cm
humidity
%
barometer
mb
20260504214018 27 83 14.5 24.1 0.00 0.00 0.00 48 1013.5
20260504213517 27 92 12.9 29.0 0.00 0.00 0.00 47 1013.6
20260504213039 27 81 12.9 29.0 0.00 0.00 0.00 48 1013.6
20260504212517 27 55 17.7 29.0 0.00 0.00 0.00 47 1013.6
20260504212016 27 80 12.9 25.7 0.00 0.00 0.00 45 1013.5
20260504211535 28 73 14.5 25.7 0.00 0.00 0.00 45 1013.5
20260504211016 27 42 11.3 27.4 0.00 0.00 0.00 45 1013.6
20260504210516 28 51 17.7 27.4 0.00 0.00 0.00 44 1013.6
20260504210045 28 116 9.7 25.7 0.00 0.00 0.00 44 1013.6
20260504205516 28 80 11.3 20.9 0.00 0.00 0.00 44 1013.6
20260504205022 28 78 9.7 17.7 0.00 0.00 0.00 43 1013.7
20260504204537 27 77 9.7 17.7 0.00 0.00 0.00 44 1013.6
20260504204017 27 85 8.0 16.1 0.00 0.00 0.00 43 1013.6
20260504203517 28 50 9.7 25.7 0.00 0.00 0.00 42 1013.7
20260504203036 28 77 8.0 25.7 0.00 0.00 0.00 40 1013.7
20260504202517 28 63 8.0 14.5 0.00 0.00 0.00 41 1013.6
20260504202016 27 10 6.4 17.7 0.00 0.00 0.00 40 1013.6
20260504201535 28 79 8.0 17.7 0.00 0.00 0.00 40 1013.7
20260504201016 28 17 11.3 17.7 0.00 0.00 0.00 38 1013.8
20260504200517 28 88 6.4 17.7 0.00 0.00 0.00 37 1013.9
20260504200032 28 90 8.0 19.3 0.00 0.00 0.00 38 1013.9
20260504195516 28 65 8.0 19.3 0.00 0.00 0.00 36 1014.0
20260504195016 29 76 11.3 20.9 0.00 0.00 0.00 36 1014.0
20260504194534 28 0 8.0 20.9 0.00 0.00 0.00 34 1014.1
20260504194016 28 84 8.0 19.3 0.00 0.00 0.00 35 1014.1
20260504193517 29 107 6.4 14.5 0.00 0.00 0.00 34 1014.3
20260504193046 28 0 1.6 16.1 0.00 0.00 0.00 33 1014.3
20260504192517 28 0 8.0 16.1 0.00 0.00 0.00 35 1014.4
20260504192021 28 92 9.7 16.1 0.00 0.00 0.00 34 1014.4
20260504191603 28 69 8.0 19.3 0.00 0.00 0.00 35 1014.5
20260504191016 28 23 4.8 19.3 0.00 0.00 0.00 36 1014.5
20260504190516 28 61 11.3 19.3 0.00 0.00 0.00 35 1014.7
20260504190039 28 70 8.0 16.1 0.00 0.00 0.00 35 1014.7
20260504185516 28 64 4.8 16.1 0.00 0.00 0.00 35 1014.9
20260504185016 28 77 8.0 16.1 0.00 0.00 0.00 35 1015.0
20260504184544 28 87 9.7 20.9 0.00 0.00 0.00 34 1015.1
20260504184020 28 108 8.0 20.9 0.00 0.00 0.00 34 1015.1
20260504183517 28 80 12.9 25.7 0.00 0.00 0.00 34 1015.3
20260504183032 27 59 8.0 25.7 0.00 0.00 0.00 34 1015.3
20260504182522 28 77 9.7 25.7 0.00 0.00 0.00 36 1015.4
20260504182017 28 44 8.0 16.1 0.00 0.00 0.00 37 1015.4
20260504181540 27 117 1.6 12.9 0.00 0.00 0.00 35 1015.6
20260504181016 27 96 6.4 19.3 0.00 0.00 0.00 35 1015.6
20260504180517 27 97 9.7 19.3 0.00 0.00 0.00 34 1015.6
20260504180038 28 126 8.0 17.7 0.00 0.00 0.00 33 1015.6
20260504175516 27 98 8.0 14.5 0.00 0.00 0.00 35 1015.6
20260504175019 27 81 6.4 16.1 0.00 0.00 0.00 34 1015.6
20260504174536 27 69 4.8 17.7 0.00 0.00 0.00 37 1015.8
20260504174016 27 42 3.2 19.3 0.00 0.00 0.00 37 1015.8
20260504173517 28 30 9.7 19.3 0.00 0.00 0.00 36 1015.9
20260504173035 28 119 4.8 27.4 0.00 0.00 0.00 36 1015.8
20260504172516 27 101 8.0 27.4 0.00 0.00 0.00 38 1015.8
20260504172017 27 88 3.2 19.3 0.00 0.00 0.00 36 1016.0
20260504171543 26 22 4.8 19.3 0.00 0.00 0.00 37 1016.1
20260504171017 27 96 4.8 19.3 0.00 0.00 0.00 35 1016.1
20260504170518 27 89 8.0 19.3 0.00 0.00 0.00 37 1016.2
20260504151016 25 75 9.7 27.4 0.00 0.00 0.00 46 1017.0
20260504150519 25 55 11.3 27.4 0.00 0.00 0.00 45 1017.1
20260504141024 23 27 11.3 27.4 0.00 0.00 0.00 56 1016.8
20260504140516 23 34 11.3 27.4 0.00 0.00 0.00 56 1016.7
20260504130516 21 82 6.4 16.1 0.00 0.00 0.00 73 1016.5
20260504110515 14 0 0.0 0.0 0.00 0.00 0.00 93 1015.7
20260504100515 14 0 0.0 0.0 0.00 0.00 0.00 92 1015.3
20260504081540 14 0 0.0 0.0 0.00 0.00 0.00 92 1015.4
20260504081021 14 0 0.0 0.0 0.00 0.00 0.00 92 1015.4
20260504080518 14 0 0.0 0.0 0.00 0.00 0.00 92 1015.5
20260504050518 16 0 0.0 0.0 0.00 0.00 0.00 85 1016.5
20260504045517 16 0 0.0 0.0 0.00 0.00 0.00 84 1016.5
20260504045017 17 0 0.0 0.0 0.00 0.00 0.00 84 1016.8
20260504044537 17 0 0.0 0.0 0.00 0.00 0.00 83 1016.8
20260504044017 17 0 0.0 0.0 0.00 0.00 0.00 82 1016.8
20260504043526 17 0 0.0 0.0 0.00 0.00 0.00 82 1016.8
20260504043039 17 0 0.0 0.0 0.00 0.00 0.00 81 1017.0
20260504042516 17 0 0.0 0.0 0.00 0.00 0.00 79 1017.0
20260504042017 18 0 0.0 0.0 0.00 0.00 0.00 78 1016.9
20260504041534 18 0 0.0 0.0 0.00 0.00 0.00 77 1016.9
20260504041017 18 0 0.0 3.2 0.00 0.00 0.00 76 1016.7
20260504040518 18 0 0.0 3.2 0.00 0.00 0.00 76 1017.0
20260504040035 18 80 1.6 4.8 0.00 0.00 0.00 76 1016.9
20260504035521 18 81 0.0 6.4 0.00 0.00 0.00 76 1016.9
20260504035018 18 0 0.0 6.4 0.00 0.00 0.00 75 1017.0
20260504034553 18 84 1.6 4.8 0.00 0.00 0.00 75 1017.0
20260504034017 18 81 1.6 4.8 0.00 0.00 0.00 75 1016.9
20260504033517 19 39 1.6 6.4 0.00 0.00 0.00 74 1016.9
20260504033050 19 63 1.6 6.4 0.00 0.00 0.00 74 1016.9
20260504032517 19 52 1.6 9.7 0.00 0.00 0.00 74 1017.0
20260504032018 19 72 3.2 9.7 0.00 0.00 0.00 74 1016.8
20260504031532 19 59 3.2 11.3 0.00 0.00 0.00 74 1016.9
20260504031017 19 89 3.2 11.3 0.00 0.00 0.00 73 1016.8
20260504030518 19 77 3.2 9.7 0.00 0.00 0.00 73 1016.9
20260504030043 19 69 3.2 8.0 0.00 0.00 0.00 73 1016.7
20260504025517 19 67 4.8 8.0 0.00 0.00 0.00 73 1016.6
20260504025018 19 57 3.2 11.3 0.00 0.00 0.00 73 1016.7
20260504024542 19 46 3.2 11.3 0.00 0.00 0.00 72 1016.7
20260504024017 20 78 4.8 11.3 0.00 0.00 0.00 72 1016.6
20260504023517 20 97 4.8 9.7 0.00 0.00 0.00 72 1016.6
20260504023036 20 55 4.8 11.3 0.00 0.00 0.00 72 1016.6
20260504022521 20 58 6.4 12.9 0.00 0.00 0.00 72 1016.6
20260504022017 20 74 6.4 12.9 0.00 0.00 0.00 71 1016.6
20260504021543 20 93 8.0 12.9 0.00 0.00 0.00 71 1016.4
20260504021017 20 63 6.4 16.1 0.00 0.00 0.00 71 1016.5
20260504020517 20 69 6.4 16.1 0.00 0.00 0.00 71 1016.5
20260504020032 20 92 8.0 16.1 0.00 0.00 0.00 71 1016.4
20260504015517 20 73 4.8 14.5 0.00 0.00 0.00 70 1016.3
20260504015019 20 65 6.4 16.1 0.00 0.00 0.00 70 1016.3
20260504014539 20 67 9.7 17.7 0.00 0.00 0.00 70 1016.2
20260504014022 20 54 8.0 17.7 0.00 0.00 0.00 69 1016.2
20260504013519 20 66 9.7 17.7 0.00 0.00 0.00 69 1016.1
20260504013038 20 54 6.4 14.5 0.00 0.00 0.00 69 1016.0
20260504012517 20 68 4.8 14.5 0.00 0.00 0.00 68 1015.9
20260504012020 20 60 6.4 16.1 0.00 0.00 0.00 68 1015.8
20260504011535 21 48 8.0 17.7 0.00 0.00 0.00 67 1015.8
20260504011016 21 82 8.0 17.7 0.00 0.00 0.00 67 1015.7
20260504010516 21 59 8.0 17.7 0.00 0.00 0.00 67 1015.7
20260504010031 21 72 8.0 19.3 0.00 0.00 0.00 66 1015.6
20260504005517 21 49 6.4 19.3 0.00 0.00 0.00 65 1015.6
20260504005017 21 64 9.7 19.3 0.00 0.00 0.00 64 1015.6
20260504004541 21 92 8.0 17.7 0.00 0.00 0.00 64 1015.5
20260504004018 21 76 6.4 16.1 0.00 0.00 0.00 63 1015.5
20260504003518 21 61 6.4 16.1 0.00 0.00 0.00 63 1015.6
20260504003042 21 64 6.4 16.1 0.00 0.00 0.00 62 1015.6
20260504002516 22 34 4.8 11.3 0.00 0.00 0.00 61 1015.6
20260504002017 22 67 4.8 11.3 0.00 0.00 0.00 61 1015.4
20260504001536 22 59 4.8 12.9 0.00 0.00 0.00 61 1015.3
20260504001019 22 55 4.8 12.9 0.00 0.00 0.00 60 1015.2
20260504000517 22 22 4.8 14.5 0.00 0.00 0.00 60 1015.2
20260504000042 22 82 6.4 14.5 0.00 0.00 0.00 59 1015.1
20260503235517 23 71 4.8 9.7 0.00 0.00 0.00 58 1015.0
20260503235017 23 76 4.8 12.9 0.00 0.00 0.00 57 1014.9
20260503234535 23 35 4.8 12.9 0.00 0.00 0.00 57 1014.9
20260503234017 23 85 8.0 17.7 0.00 0.00 0.00 56 1014.9
20260503233517 23 42 6.4 17.7 0.00 0.00 0.00 56 1014.9
20260503233038 24 71 8.0 17.7 0.00 0.00 0.00 54 1014.9
20260503232516 24 63 9.7 16.1 0.00 0.00 0.00 54 1014.9
20260503232016 25 61 6.4 14.5 0.00 0.00 0.00 52 1014.8
20260503231531 25 59 6.4 17.7 0.00 0.00 0.00 52 1014.7
20260503231019 25 46 4.8 17.7 0.00 0.00 0.00 52 1014.7
20260503230517 25 46 8.0 17.7 0.00 0.00 0.00 51 1014.7
20260503230038 25 47 8.0 14.5 0.00 0.00 0.00 51 1014.7
20260503225516 25 28 8.0 14.5 0.00 0.00 0.00 51 1014.6
20260503225021 25 13 4.8 14.5 0.00 0.00 0.00 51 1014.7
20260503224536 26 74 4.8 12.9 0.00 0.00 0.00 50 1014.7
20260503224017 25 85 8.0 17.7 0.00 0.00 0.00 50 1014.7
20260503223517 26 80 9.7 17.7 0.00 0.00 0.00 48 1014.7
20260503223036 27 80 1.6 14.5 0.00 0.00 0.00 47 1014.8
20260503222516 26 84 6.4 14.5 0.00 0.00 0.00 49 1014.8
20260503222016 26 37 6.4 16.1 0.00 0.00 0.00 47 1014.8
20260503221538 26 71 4.8 16.1 0.00 0.00 0.00 50 1014.9
20260503221018 26 86 9.7 16.1 0.00 0.00 0.00 50 1014.8
20260503220517 26 71 4.8 12.9 0.00 0.00 0.00 49 1014.7
20260503220043 25 113 6.4 11.3 0.00 0.00 0.00 50 1014.7
20260503215517 26 57 3.2 16.1 0.00 0.00 0.00 50 1014.8
20260503215016 26 82 6.4 16.1 0.00 0.00 0.00 49 1014.7
20260503214541 26 74 8.0 16.1 0.00 0.00 0.00 49 1014.7